JR2LGW-13 Weather Reports


time (UTC)temp
F
wind
direction
speed
knots
gust
knots
rain 1hr
in
rain 24hr
in
rain mn
in
humidity
%
barometer
mb
20260504150646 58 318 9.6 15.6 0.00 0.40 0.00 62 1012.8
20260504141246 58 326 10.4 17.4 0.00 0.99 0.43 60 1012.4
20260504140346 58 320 8.7 13.9 0.00 1.09 0.43 60 1012.5
20260504110347 60 319 11.3 20.9 0.00 1.90 0.43 64 1009.6
20260504081246 67 330 15.6 26.1 0.00 2.24 0.43 56 1005.8
20260504080346 68 327 13.9 22.6 0.00 2.26 0.43 57 1005.3
20260504050346 72 309 12.2 20.9 0.00 2.30 0.43 57 1002.8
20260504045446 73 308 13.0 23.5 0.00 2.30 0.43 55 1003.0
20260504044546 73 307 13.0 20.9 0.00 2.30 0.43 55 1002.8
20260504041846 74 305 14.8 23.5 0.00 2.30 0.43 52 1003.0
20260504040947 74 313 13.9 26.1 0.00 2.30 0.43 51 1003.0
20260504040046 74 304 13.9 26.1 0.00 2.30 0.43 54 1003.0
20260504035146 74 295 13.9 23.5 0.00 2.30 0.43 55 1003.0
20260504033346 73 309 11.3 19.1 0.00 2.30 0.43 59 1002.8
20260504032446 73 311 13.0 21.7 0.00 2.30 0.43 62 1002.7
20260504031546 73 310 11.3 19.1 0.00 2.30 0.43 61 1002.8
20260504030647 73 297 13.0 20.0 0.00 2.30 0.43 63 1002.7
20260504025746 73 312 12.2 20.9 0.00 2.30 0.43 64 1002.9
20260504024846 72 310 12.2 20.9 0.00 2.30 0.43 65 1002.8
20260504023946 72 310 10.4 18.2 0.00 2.30 0.43 70 1003.0
20260504023047 71 307 11.3 19.1 0.00 2.30 0.43 71 1003.0
20260504022146 71 305 11.3 19.1 0.00 2.30 0.43 72 1002.8
20260504021247 71 307 9.6 14.8 0.00 2.30 0.43 73 1002.9
20260504020346 71 298 8.7 13.9 0.00 2.30 0.43 74 1003.2
20260504015447 70 293 8.7 14.8 0.00 2.30 0.43 75 1003.1
20260504013646 69 288 9.6 17.4 0.00 2.30 0.43 78 1003.5
20260504011846 69 294 9.6 15.6 0.00 2.30 0.43 80 1003.4
20260504010947 68 293 8.7 13.9 0.00 2.30 0.43 81 1003.4
20260504010046 67 282 9.6 14.8 0.00 2.30 0.43 82 1003.4
20260504005146 67 283 8.7 13.9 0.00 2.30 0.43 83 1003.5
20260504003346 68 272 7.8 13.9 0.00 2.30 0.43 85 1003.3
20260504002447 67 281 6.1 10.4 0.00 2.30 0.43 85 1003.3
20260504001546 67 287 7.0 12.2 0.00 2.30 0.43 86 1003.3
20260504000646 67 279 7.0 10.4 0.00 2.30 0.43 86 1003.4
20260503235746 67 285 7.0 10.4 0.00 2.30 0.43 87 1003.3
20260503234846 66 292 7.8 11.3 0.00 2.30 0.43 88 1003.3
20260503233946 66 287 8.7 13.0 0.00 2.30 0.43 88 1003.4
20260503233048 66 289 9.6 14.8 0.00 2.30 0.43 88 1003.2
20260503232146 65 287 9.6 16.5 0.00 2.30 0.43 89 1003.3
20260503231246 65 292 9.6 14.8 0.00 2.30 0.43 89 1003.3
20260503230347 65 286 10.4 16.5 0.00 2.30 0.43 89 1003.3
20260503225446 65 292 8.7 14.8 0.00 2.30 0.43 90 1003.2
20260503223646 65 289 7.0 13.0 0.00 2.30 0.43 91 1002.5
20260503222746 65 294 8.7 13.0 0.00 2.30 0.43 90 1002.6
20260503221846 66 300 7.8 13.0 0.00 2.30 0.43 90 1002.7
20260503220946 66 300 7.0 12.2 0.00 2.30 0.43 90 1002.5
20260503220047 66 305 7.8 13.0 0.00 2.30 0.43 90 1001.9
20260503215146 66 312 8.7 13.9 0.00 2.30 0.43 90 1001.7
20260503211546 67 317 8.7 13.9 0.01 2.30 0.43 91 1001.5
20260503210646 67 315 9.6 21.7 0.01 2.30 0.43 92 1001.6
20260503205746 67 307 7.0 12.2 0.02 2.30 0.43 95 1001.6
20260503204846 67 305 6.1 10.4 0.03 2.30 0.43 96 1001.5
20260503203946 67 304 6.1 11.3 0.06 2.30 0.43 96 1001.3
20260503203046 67 302 6.1 10.4 0.07 2.29 0.42 96 1001.5
20260503202146 68 301 7.0 11.3 0.08 2.29 0.42 96 1001.5
20260503200347 68 296 8.7 13.0 0.09 2.29 0.42 96 1001.3
20260503195446 68 283 11.3 16.5 0.09 2.28 0.41 96 1001.2
20260503194545 68 294 11.3 19.1 0.14 2.26 0.39 95 1001.1
20260503193647 68 299 10.4 16.5 0.18 2.24 0.37 95 1001.0
20260503192747 69 289 11.3 19.1 0.17 2.22 0.35 96 1000.4
20260503190947 69 282 14.8 22.6 0.16 2.21 0.34 96 1000.6
20260503190046 68 284 14.8 27.8 0.14 2.20 0.32 96 1000.6
20260503184247 69 297 13.0 26.1 0.03 2.09 0.21 94 1000.3
20260503183347 69 310 12.2 21.7 0.00 2.06 0.18 94 1000.5
20260503182447 69 280 12.2 21.7 0.00 2.06 0.18 94 1000.5
20260503181545 69 256 11.3 22.6 0.00 2.06 0.18 94 1000.7
20260503180647 69 265 11.3 23.5 0.00 2.06 0.18 94 1000.9
20260503174847 69 276 10.4 20.0 0.01 2.06 0.18 95 1001.3
20260503173947 68 315 7.8 17.4 0.02 2.06 0.18 95 1001.5
20260503173045 68 195 7.8 16.5 0.02 2.06 0.18 96 1001.5
20260503172146 68 250 7.0 15.6 0.02 2.06 0.18 96 1001.8
20260503171246 67 286 6.1 14.8 0.02 2.06 0.18 96 1002.0
20260503170345 67 276 6.1 14.8 0.02 2.06 0.18 97 1002.2